| time (UTC) | temp F | wind direction | speed MPH | gust MPH | rain 1hr in | rain 24hr in | rain mn in | humidity % | barometer mb |
| 20260504205238 | 76 | 101 | 0.0 | 9.0 | 0.00 | 0.15 | 0.15 | 66 | 1005.9 |
| 20260504204736 | 76 | 166 | 3.0 | 6.0 | 0.00 | 0.15 | 0.15 | 65 | 1005.9 |
| 20260504204234 | 75 | 95 | 0.0 | 4.0 | 0.00 | 0.15 | 0.15 | 71 | 1006.1 |
| 20260504203733 | 76 | 132 | 2.0 | 2.0 | 0.00 | 0.15 | 0.15 | 70 | 1006.1 |
| 20260504203230 | 76 | 157 | 3.0 | 8.0 | 0.00 | 0.15 | 0.15 | 65 | 1006.3 |
| 20260504202729 | 75 | 143 | 1.0 | 5.0 | 0.00 | 0.15 | 0.15 | 71 | 1006.3 |
| 20260504202227 | 74 | 194 | 1.0 | 5.0 | 0.00 | 0.15 | 0.15 | 70 | 1006.2 |
| 20260504201724 | 73 | 154 | 0.0 | 2.0 | 0.00 | 0.15 | 0.15 | 78 | 1006.3 |
| 20260504201221 | 72 | 89 | 1.0 | 2.0 | 0.00 | 0.15 | 0.15 | 80 | 1006.1 |
| 20260504200719 | 70 | 137 | 0.0 | 3.0 | 0.00 | 0.15 | 0.15 | 85 | 1006.5 |
| 20260504200214 | 68 | 255 | 0.0 | 2.0 | 0.00 | 0.15 | 0.15 | 89 | 1006.5 |
| 20260504195711 | 68 | 109 | 3.0 | 4.0 | 0.00 | 0.15 | 0.15 | 90 | 1006.2 |
| 20260504195207 | 66 | 77 | 0.0 | 2.0 | 0.00 | 0.15 | 0.15 | 92 | 1006.1 |
| 20260504194704 | 66 | 161 | 0.0 | 3.0 | 0.00 | 0.15 | 0.15 | 96 | 1006.3 |
| 20260504194200 | 66 | 157 | 2.0 | 3.0 | 0.00 | 0.15 | 0.15 | 96 | 1006.8 |
| 20260504193657 | 67 | 173 | 0.0 | 2.0 | 0.00 | 0.15 | 0.15 | 96 | 1006.9 |
| 20260504193155 | 66 | 163 | 1.0 | 2.0 | 0.00 | 0.15 | 0.15 | 96 | 1007.0 |
| 20260504192652 | 63 | 276 | 2.0 | 2.0 | 0.00 | 0.15 | 0.15 | 97 | 1006.9 |
| 20260504192150 | 62 | 31 | 1.0 | 2.0 | 0.00 | 0.15 | 0.15 | 97 | 1006.6 |
| 20260504191649 | 61 | 0 | 2.0 | 3.0 | 0.00 | 0.15 | 0.15 | 98 | 1006.8 |
| 20260504191144 | 61 | 236 | 1.0 | 2.0 | 0.00 | 0.15 | 0.15 | 98 | 1006.9 |
| 20260504190641 | 61 | 87 | 1.0 | 3.0 | 0.02 | 0.15 | 0.15 | 98 | 1007.3 |
| 20260504190137 | 60 | 63 | 1.0 | 2.0 | 0.05 | 0.15 | 0.15 | 98 | 1007.7 |
| 20260504185634 | 60 | 98 | 1.0 | 3.0 | 0.07 | 0.15 | 0.15 | 98 | 1007.8 |
| 20260504185130 | 60 | 97 | 2.0 | 3.0 | 0.05 | 0.14 | 0.14 | 97 | 1008.2 |
| 20260504184626 | 60 | 350 | 0.0 | 3.0 | 0.05 | 0.13 | 0.13 | 97 | 1008.1 |
| 20260504184121 | 60 | 43 | 1.0 | 2.0 | 0.07 | 0.13 | 0.13 | 96 | 1008.0 |
| 20260504183619 | 60 | 344 | 2.0 | 3.0 | 0.05 | 0.13 | 0.13 | 95 | 1007.5 |
| 20260504183116 | 60 | 19 | 2.0 | 3.0 | 0.09 | 0.12 | 0.12 | 95 | 1007.3 |
| 20260504182614 | 60 | 19 | 2.0 | 4.0 | 0.42 | 0.11 | 0.11 | 95 | 1007.3 |
| 20260504182111 | 60 | 118 | 0.0 | 3.0 | 0.45 | 0.10 | 0.10 | 95 | 1007.8 |
| 20260504181609 | 61 | 148 | 3.0 | 4.0 | 0.05 | 0.03 | 0.03 | 94 | 1008.6 |
| 20260504181106 | 61 | 96 | 1.0 | 3.0 | 0.00 | 0.02 | 0.02 | 92 | 1008.6 |
| 20260504180605 | 61 | 47 | 1.0 | 2.0 | 0.00 | 0.02 | 0.02 | 91 | 1008.4 |
| 20260504180104 | 61 | 31 | 0.0 | 2.0 | 0.00 | 0.02 | 0.02 | 91 | 1008.3 |
| 20260504175600 | 61 | 18 | 1.0 | 2.0 | 0.00 | 0.02 | 0.02 | 90 | 1008.0 |
| 20260504175057 | 61 | 1 | 1.0 | 2.0 | 0.00 | 0.02 | 0.02 | 91 | 1007.9 |
| 20260504174555 | 62 | 85 | 2.0 | 3.0 | 0.00 | 0.02 | 0.02 | 91 | 1008.0 |
| 20260504174051 | 62 | 89 | 0.0 | 2.0 | 0.00 | 0.02 | 0.02 | 89 | 1008.1 |
| 20260504173548 | 62 | 114 | 0.0 | 1.0 | 0.00 | 0.02 | 0.02 | 88 | 1008.1 |
| 20260504173046 | 62 | 132 | 1.0 | 2.0 | 0.00 | 0.02 | 0.02 | 85 | 1008.3 |
| 20260504172542 | 62 | 109 | 0.0 | 3.0 | 0.00 | 0.02 | 0.02 | 85 | 1008.2 |
| 20260504172038 | 62 | 89 | 0.0 | 2.0 | 0.00 | 0.02 | 0.02 | 82 | 1008.6 |
| 20260504171535 | 62 | 57 | 0.0 | 2.0 | 0.00 | 0.02 | 0.02 | 81 | 1008.3 |
| 20260504171032 | 63 | 45 | 0.0 | 3.0 | 0.07 | 0.02 | 0.02 | 77 | 1008.2 |
| 20260504170528 | 64 | 89 | 0.0 | 3.0 | 0.05 | 0.02 | 0.02 | 78 | 1008.1 |
| 20260504150912 | 68 | 230 | 0.0 | 2.0 | 0.00 | 0.00 | 0.00 | 60 | 1010.5 |
| 20260504150409 | 68 | 214 | 0.0 | 3.0 | 0.00 | 0.00 | 0.00 | 63 | 1010.3 |
| 20260504140835 | 68 | 213 | 0.0 | 3.0 | 0.00 | 0.00 | 0.00 | 62 | 1010.0 |
| 20260504140331 | 68 | 150 | 2.0 | 3.0 | 0.00 | 0.00 | 0.00 | 63 | 1010.1 |
| 20260504130800 | 64 | 88 | 2.0 | 5.0 | 0.00 | 0.00 | 0.00 | 70 | 1010.6 |
| 20260504130256 | 63 | 137 | 0.0 | 8.0 | 0.00 | 0.00 | 0.00 | 71 | 1010.6 |
| 20260504120220 | 55 | 157 | 1.0 | 3.0 | 0.00 | 0.00 | 0.00 | 89 | 1011.1 |
| 20260504110647 | 53 | 124 | 1.0 | 2.0 | 0.00 | 0.00 | 0.00 | 90 | 1011.1 |
| 20260504110143 | 53 | 135 | 2.0 | 3.0 | 0.00 | 0.00 | 0.00 | 90 | 1011.3 |
| 20260504100609 | 55 | 111 | 1.0 | 2.0 | 0.00 | 0.00 | 0.00 | 88 | 1010.8 |
| 20260504100107 | 55 | 114 | 0.0 | 2.0 | 0.00 | 0.00 | 0.00 | 88 | 1010.7 |
| 20260504082003 | 57 | 69 | 1.0 | 3.0 | 0.00 | 0.00 | 0.00 | 83 | 1010.7 |
| 20260504081500 | 57 | 144 | 0.0 | 3.0 | 0.00 | 0.00 | 0.00 | 82 | 1010.9 |
| 20260504080949 | 57 | 138 | 3.0 | 3.0 | 0.00 | 0.00 | 0.00 | 82 | 1010.7 |
| 20260504080447 | 57 | 65 | 0.0 | 2.0 | 0.00 | 0.00 | 0.00 | 81 | 1011.0 |
| 20260504050253 | 66 | 133 | 0.0 | 4.0 | 0.00 | 0.00 | 0.00 | 56 | 1010.7 |
| 20260504045750 | 66 | 295 | 3.0 | 7.0 | 0.00 | 0.00 | 0.00 | 56 | 1010.6 |
| 20260504045245 | 66 | 269 | 0.0 | 7.0 | 0.00 | 0.00 | 0.00 | 55 | 1010.8 |
| 20260504044743 | 67 | 187 | 2.0 | 8.0 | 0.00 | 0.00 | 0.00 | 55 | 1010.8 |
| 20260504044240 | 67 | 274 | 1.0 | 4.0 | 0.00 | 0.00 | 0.00 | 55 | 1010.9 |
| 20260504043737 | 67 | 112 | 3.0 | 6.0 | 0.00 | 0.00 | 0.00 | 55 | 1010.9 |
| 20260504043234 | 67 | 257 | 0.0 | 3.0 | 0.00 | 0.00 | 0.00 | 54 | 1011.0 |
| 20260504042732 | 67 | 196 | 0.0 | 6.0 | 0.00 | 0.00 | 0.00 | 54 | 1011.2 |
| 20260504042228 | 67 | 187 | 3.0 | 6.0 | 0.00 | 0.00 | 0.00 | 54 | 1011.5 |
| 20260504041724 | 68 | 197 | 0.0 | 5.0 | 0.00 | 0.00 | 0.00 | 53 | 1011.5 |
| 20260504041220 | 68 | 188 | 1.0 | 5.0 | 0.00 | 0.00 | 0.00 | 53 | 1011.5 |
| 20260504040717 | 68 | 134 | 2.0 | 4.0 | 0.00 | 0.00 | 0.00 | 53 | 1011.5 |
| 20260504040214 | 68 | 134 | 3.0 | 10.0 | 0.00 | 0.00 | 0.00 | 52 | 1011.5 |
| 20260504035710 | 68 | 243 | 2.0 | 4.0 | 0.00 | 0.00 | 0.00 | 52 | 1011.2 |
| 20260504035208 | 68 | 340 | 2.0 | 7.0 | 0.00 | 0.00 | 0.00 | 52 | 1011.8 |
| 20260504034705 | 68 | 239 | 2.0 | 7.0 | 0.00 | 0.00 | 0.00 | 52 | 1012.2 |
| 20260504034202 | 68 | 210 | 1.0 | 4.0 | 0.00 | 0.00 | 0.00 | 52 | 1011.9 |
| 20260504033700 | 68 | 230 | 2.0 | 3.0 | 0.00 | 0.00 | 0.00 | 53 | 1012.0 |
| 20260504033156 | 68 | 226 | 1.0 | 4.0 | 0.00 | 0.00 | 0.00 | 52 | 1011.9 |
| 20260504032653 | 68 | 245 | 2.0 | 7.0 | 0.00 | 0.00 | 0.00 | 52 | 1012.1 |
| 20260504032151 | 68 | 59 | 1.0 | 3.0 | 0.00 | 0.00 | 0.00 | 53 | 1012.1 |
| 20260504031647 | 68 | 296 | 2.0 | 5.0 | 0.00 | 0.00 | 0.00 | 52 | 1012.1 |
| 20260504031144 | 68 | 269 | 0.0 | 5.0 | 0.00 | 0.00 | 0.00 | 53 | 1012.2 |
| 20260504030640 | 67 | 231 | 2.0 | 3.0 | 0.00 | 0.00 | 0.00 | 53 | 1012.1 |
| 20260504030137 | 68 | 129 | 0.0 | 4.0 | 0.00 | 0.00 | 0.00 | 52 | 1012.1 |
| 20260504025634 | 68 | 146 | 2.0 | 4.0 | 0.00 | 0.00 | 0.00 | 54 | 1011.8 |
| 20260504025131 | 68 | 160 | 0.0 | 4.0 | 0.00 | 0.00 | 0.00 | 51 | 1012.1 |
| 20260504024628 | 68 | 132 | 0.0 | 4.0 | 0.00 | 0.00 | 0.00 | 52 | 1011.8 |
| 20260504024125 | 67 | 157 | 0.0 | 3.0 | 0.00 | 0.00 | 0.00 | 53 | 1012.0 |
| 20260504023621 | 67 | 151 | 1.0 | 4.0 | 0.00 | 0.00 | 0.00 | 54 | 1011.8 |
| 20260504023117 | 67 | 203 | 0.0 | 2.0 | 0.00 | 0.00 | 0.00 | 55 | 1012.0 |
| 20260504022614 | 67 | 205 | 1.0 | 2.0 | 0.00 | 0.00 | 0.00 | 55 | 1011.9 |
| 20260504022110 | 66 | 124 | 0.0 | 2.0 | 0.00 | 0.00 | 0.00 | 56 | 1011.9 |
| 20260504021608 | 66 | 121 | 1.0 | 2.0 | 0.00 | 0.00 | 0.00 | 58 | 1011.8 |
| 20260504021104 | 66 | 145 | 0.0 | 3.0 | 0.00 | 0.00 | 0.00 | 57 | 1011.7 |
| 20260504020601 | 67 | 141 | 0.0 | 2.0 | 0.00 | 0.00 | 0.00 | 57 | 1011.8 |
| 20260504020057 | 67 | 168 | 0.0 | 2.0 | 0.00 | 0.00 | 0.00 | 55 | 1011.7 |
| 20260504015554 | 67 | 153 | 1.0 | 2.0 | 0.00 | 0.00 | 0.00 | 58 | 1011.6 |
| 20260504015050 | 67 | 75 | 0.0 | 2.0 | 0.00 | 0.00 | 0.00 | 55 | 1011.6 |
| 20260504014546 | 68 | 162 | 0.0 | 4.0 | 0.00 | 0.00 | 0.00 | 55 | 1011.6 |
| 20260504014044 | 68 | 180 | 0.0 | 3.0 | 0.00 | 0.00 | 0.00 | 52 | 1011.5 |
| 20260504013541 | 69 | 129 | 0.0 | 1.0 | 0.00 | 0.00 | 0.00 | 56 | 1011.4 |
| 20260504013038 | 69 | 142 | 0.0 | 1.0 | 0.00 | 0.00 | 0.00 | 54 | 1011.5 |
| 20260504012536 | 70 | 122 | 0.0 | 1.0 | 0.00 | 0.00 | 0.00 | 52 | 1011.4 |
| 20260504012033 | 71 | 99 | 0.0 | 1.0 | 0.00 | 0.00 | 0.00 | 50 | 1011.4 |
| 20260504011530 | 71 | 224 | 0.0 | 3.0 | 0.00 | 0.00 | 0.00 | 51 | 1011.3 |
| 20260504011026 | 72 | 164 | 0.0 | 1.0 | 0.00 | 0.00 | 0.00 | 48 | 1011.3 |
| 20260504010521 | 72 | 164 | 0.0 | 3.0 | 0.00 | 0.00 | 0.00 | 45 | 1011.4 |
| 20260504010018 | 72 | 200 | 1.0 | 2.0 | 0.00 | 0.00 | 0.00 | 44 | 1011.4 |
| 20260504005515 | 73 | 134 | 0.0 | 5.0 | 0.00 | 0.00 | 0.00 | 45 | 1011.3 |
| 20260504005012 | 73 | 135 | 0.0 | 2.0 | 0.00 | 0.00 | 0.00 | 44 | 1011.4 |
| 20260504004510 | 73 | 256 | 0.0 | 2.0 | 0.00 | 0.00 | 0.00 | 42 | 1011.3 |
| 20260504004007 | 73 | 183 | 1.0 | 2.0 | 0.00 | 0.00 | 0.00 | 42 | 1011.3 |
| 20260504003503 | 74 | 154 | 0.0 | 3.0 | 0.00 | 0.00 | 0.00 | 41 | 1011.2 |
| 20260504003000 | 74 | 164 | 1.0 | 3.0 | 0.00 | 0.00 | 0.00 | 41 | 1011.4 |
| 20260504002457 | 74 | 195 | 0.0 | 6.0 | 0.00 | 0.00 | 0.00 | 40 | 1011.3 |
| 20260504001954 | 75 | 220 | 2.0 | 3.0 | 0.00 | 0.00 | 0.00 | 40 | 1011.1 |
| 20260504001451 | 75 | 131 | 0.0 | 4.0 | 0.00 | 0.00 | 0.00 | 40 | 1011.2 |
| 20260504000948 | 75 | 153 | 1.0 | 4.0 | 0.00 | 0.00 | 0.00 | 39 | 1011.2 |
| 20260504000445 | 75 | 189 | 5.0 | 6.0 | 0.00 | 0.00 | 0.00 | 39 | 1011.2 |
| 20260503235942 | 76 | 151 | 2.0 | 4.0 | 0.00 | 0.00 | 0.00 | 38 | 1011.3 |
| 20260503235440 | 76 | 198 | 2.0 | 4.0 | 0.00 | 0.00 | 0.00 | 38 | 1011.5 |
| 20260503234937 | 76 | 230 | 2.0 | 5.0 | 0.00 | 0.00 | 0.00 | 38 | 1011.6 |
| 20260503234435 | 76 | 153 | 1.0 | 8.0 | 0.00 | 0.00 | 0.00 | 37 | 1011.4 |
| 20260503233933 | 76 | 304 | 2.0 | 9.0 | 0.00 | 0.00 | 0.00 | 37 | 1011.4 |
| 20260503233429 | 77 | 159 | 0.0 | 6.0 | 0.00 | 0.00 | 0.00 | 36 | 1011.5 |
| 20260503232925 | 77 | 244 | 1.0 | 6.0 | 0.00 | 0.00 | 0.00 | 36 | 1011.5 |
| 20260503232422 | 77 | 131 | 2.0 | 6.0 | 0.00 | 0.00 | 0.00 | 36 | 1011.7 |
| 20260503231920 | 77 | 260 | 0.0 | 10.0 | 0.00 | 0.00 | 0.00 | 36 | 1011.6 |
| 20260503231417 | 77 | 158 | 4.0 | 8.0 | 0.00 | 0.00 | 0.00 | 35 | 1011.6 |
| 20260503230914 | 77 | 137 | 2.0 | 6.0 | 0.00 | 0.00 | 0.00 | 34 | 1011.7 |
| 20260503230410 | 77 | 317 | 1.0 | 5.0 | 0.00 | 0.00 | 0.00 | 34 | 1011.7 |
| 20260503225908 | 77 | 308 | 2.0 | 9.0 | 0.00 | 0.00 | 0.00 | 34 | 1011.7 |
| 20260503225404 | 78 | 298 | 3.0 | 5.0 | 0.00 | 0.00 | 0.00 | 34 | 1011.7 |
| 20260503224900 | 78 | 219 | 0.0 | 6.0 | 0.00 | 0.00 | 0.00 | 35 | 1012.0 |
| 20260503224357 | 78 | 256 | 3.0 | 8.0 | 0.00 | 0.00 | 0.00 | 34 | 1012.0 |
| 20260503223855 | 78 | 319 | 2.0 | 5.0 | 0.00 | 0.00 | 0.00 | 34 | 1011.7 |
| 20260503223353 | 78 | 312 | 3.0 | 4.0 | 0.00 | 0.00 | 0.00 | 33 | 1012.0 |
| 20260503222848 | 79 | 109 | 7.0 | 7.0 | 0.00 | 0.00 | 0.00 | 32 | 1011.9 |
| 20260503222347 | 80 | 272 | 2.0 | 4.0 | 0.00 | 0.00 | 0.00 | 31 | 1012.1 |
| 20260503221844 | 80 | 252 | 4.0 | 7.0 | 0.00 | 0.00 | 0.00 | 30 | 1011.8 |
| 20260503221343 | 81 | 172 | 8.0 | 10.0 | 0.00 | 0.00 | 0.00 | 29 | 1012.0 |
| 20260503220838 | 82 | 81 | 0.0 | 6.0 | 0.00 | 0.00 | 0.00 | 30 | 1012.3 |
| 20260503220336 | 81 | 42 | 3.0 | 6.0 | 0.00 | 0.00 | 0.00 | 29 | 1012.2 |
| 20260503215832 | 82 | 163 | 2.0 | 6.0 | 0.00 | 0.00 | 0.00 | 29 | 1012.3 |
| 20260503215329 | 82 | 258 | 2.0 | 7.0 | 0.00 | 0.00 | 0.00 | 30 | 1012.2 |
| 20260503214826 | 81 | 197 | 0.0 | 9.0 | 0.00 | 0.00 | 0.00 | 30 | 1012.0 |
| 20260503214324 | 81 | 115 | 0.0 | 11.0 | 0.00 | 0.00 | 0.00 | 31 | 1012.2 |
| 20260503213816 | 80 | 185 | 2.0 | 11.0 | 0.00 | 0.00 | 0.00 | 29 | 1012.3 |
| 20260503213314 | 80 | 222 | 2.0 | 10.0 | 0.00 | 0.00 | 0.00 | 29 | 1011.9 |
| 20260503212810 | 80 | 117 | 4.0 | 14.0 | 0.00 | 0.00 | 0.00 | 30 | 1012.1 |
| 20260503212308 | 80 | 288 | 3.0 | 13.0 | 0.00 | 0.00 | 0.00 | 29 | 1012.1 |
| 20260503211805 | 80 | 232 | 4.0 | 7.0 | 0.00 | 0.00 | 0.00 | 28 | 1012.5 |
| 20260503211301 | 80 | 227 | 3.0 | 13.0 | 0.00 | 0.00 | 0.00 | 30 | 1012.4 |
| 20260503210755 | 80 | 261 | 1.0 | 10.0 | 0.00 | 0.00 | 0.00 | 30 | 1012.3 |
| 20260503210253 | 80 | 123 | 9.0 | 9.0 | 0.00 | 0.00 | 0.00 | 31 | 1012.4 |
| 20260503205748 | 79 | 301 | 8.0 | 12.0 | 0.00 | 0.00 | 0.00 | 31 | 1012.7 |